Tracking 25410 objects as of 21-Jan-2022
HD Live streaming from Space Station
objects crossing your sky now

COSMOS 1037

Track COSMOS 1037 now!
10-day predictions
COSMOS 1037 is classified as:


NORAD ID: 11046
Int'l Code: 1978-091D
Perigee: 1,468.2 km
Apogee: 1,488.6 km
Inclination: 74.0 °
Period: 115.3 minutes
Semi major axis: 7849 km
RCS: 0.7202 m2 (medium)
Launch date: October 4, 1978
Source: Commonwealth of Independent States (former USSR) (CIS)
Launch site: PLESETSK MISSILE AND SPACE COMPLEX (PKMTR)
aabbcc
Your satellite tracking list
Your tracking list is empty




NASA's NSSDC Master Catalog

Two Line Element Set (TLE):
1 11046U 78091D   22020.77993721 -.00000024  00000-0 -57145-4 0  9992
2 11046  74.0363  17.3146 0013001 188.3125 346.5490 12.48375901973170
Source of the keplerian elements: AFSPC